Asheboro, NC

7:40 AM EDT on August 30, 2016 (GMT -0400)
Asheboro Municipal

Weather History for KHBI - January, 2014

Change the Weather History Date:

Wednesday, January 8, 2014

  Actual Average Record
Temperature  
Mean Temperature 28 °F -  
Max Temperature 43 °F 48 °F 69 °F (2007)
Min Temperature 12 °F 30 °F 7 °F (1970)
Degree Days  
Heating Degree Days 38    
Moisture  
Dew Point 7 °F    
Average Humidity 46    
Maximum Humidity 82    
Minimum Humidity 17    
Precipitation  
Precipitation 0.00 in - - ()
Sea Level Pressure  
Sea Level Pressure 30.53 in    
Wind  
Wind Speed 1 mph (South)    
Max Wind Speed 7 mph    
Max Gust Speed -    
Visibility 10 miles    
Events      
Averages and records for this station are not official NWS values.
T = Trace of Precipitation, MM = Missing Value Source: NWS Daily Summary

Daily Weather History Graph

Daily Weather History Graph

Search for Another Location

Airport or City:

Trip Planner

Search our weather history database for the weather conditions in past years. The results will help you decide how hot, cold, wet, or windy it might be!

Date:

Astronomy

Jan. 08, 2014 Rise Set
Actual Time 7:29 AM EST 5:23 PM EST
Civil Twilight 7:01 AM EST 5:51 PM EST
Nautical Twilight 6:30 AM EST 6:22 PM EST
Astronomical Twilight 5:59 AM EST 6:53 PM EST
Moon 12:08 PM EST (1/8) 12:40 AM EST (1/8)
Length of Visible Light 10h 49m
Length of Day
9h 53m
First Quarter, 56% of the Moon is Illuminated
Jan 8
First Quarter
Jan 15
Full
Jan 24
Last Quarter
Jan 30
New
Feb 6
First Quarter

Hourly Weather History & Observations

Time (EST) Temp. Windchill Dew Point Humidity Pressure Visibility Wind Dir Wind Speed Gust Speed Precip Events Conditions
12:15 AM 19.8 °F - 2.3 °F 47% 30.49 in 10.0 mi Calm Calm - N/A   Clear
12:35 AM 19.6 °F - 2.7 °F 48% 30.49 in 10.0 mi Calm Calm - N/A   Clear
12:55 AM 19.4 °F - 2.3 °F 48% 30.48 in 10.0 mi Calm Calm - N/A   Clear
1:15 AM 19.4 °F - 2.3 °F 48% 30.48 in 10.0 mi Calm Calm - N/A   Clear
1:35 AM 19.8 °F 14.7 °F 2.1 °F 46% 30.49 in 10.0 mi SW 3.5 mph - N/A   Clear
1:55 AM 19.8 °F 13.2 °F 3.2 °F 49% 30.49 in 10.0 mi SW 4.6 mph - N/A   Clear
2:15 AM 19.0 °F - 3.2 °F 50% 30.49 in 10.0 mi Calm Calm - N/A   Clear
2:35 AM 18.9 °F - 4.1 °F 53% 30.50 in 10.0 mi Calm Calm - N/A   Clear
2:55 AM 18.7 °F 13.5 °F 3.9 °F 53% 30.51 in 10.0 mi SSW 3.5 mph - N/A   Clear
3:15 AM 19.4 °F 14.3 °F 4.3 °F 52% 30.51 in 10.0 mi SSW 3.5 mph - N/A   Clear
3:35 AM 19.8 °F 14.7 °F 4.1 °F 51% 30.51 in 10.0 mi SW 3.5 mph - N/A   Clear
3:55 AM 19.4 °F - 4.1 °F 52% 30.51 in 10.0 mi Calm Calm - N/A   Clear
4:15 AM 18.0 °F - 7.0 °F 62% 30.51 in 10.0 mi Calm Calm - N/A   Clear
4:35 AM 15.6 °F - 9.1 °F 76% 30.52 in 10.0 mi Calm Calm - N/A   Clear
4:55 AM 16.2 °F - 7.7 °F 69% 30.52 in 10.0 mi Calm Calm - N/A   Clear
5:15 AM 17.1 °F - 6.4 °F 63% 30.52 in 10.0 mi Calm Calm - N/A   Clear
5:35 AM 14.9 °F - 9.5 °F 79% 30.52 in 10.0 mi Calm Calm - N/A   Clear
5:55 AM 15.8 °F - 6.8 °F 68% 30.52 in 10.0 mi Calm Calm - N/A   Clear
6:15 AM 14.7 °F - 7.2 °F 72% 30.52 in 10.0 mi Calm Calm - N/A   Clear
6:35 AM 14.0 °F - 7.2 °F 74% 30.53 in 10.0 mi Calm Calm - N/A   Clear
6:55 AM 13.1 °F - 7.7 °F 79% 30.54 in 10.0 mi Calm Calm - N/A   Clear
7:15 AM 12.9 °F - 8.4 °F 82% 30.54 in 10.0 mi Calm Calm - N/A   Clear
7:35 AM 12.9 °F - 7.7 °F 80% 30.54 in 10.0 mi Calm Calm - N/A   Clear
7:55 AM 13.8 °F - 8.2 °F 78% 30.56 in 10.0 mi Calm Calm - N/A   Clear
8:15 AM 14.2 °F - 8.4 °F 78% 30.57 in 10.0 mi Calm Calm - N/A   Clear
8:40 AM 16.0 °F - 10.2 °F 78% 30.58 in 10.0 mi Calm Calm - N/A   Clear
8:55 AM 18.7 °F - 10.4 °F 70% 30.59 in 10.0 mi Calm Calm - N/A   Clear
9:15 AM 21.2 °F - 9.5 °F 61% 30.59 in 10.0 mi Calm Calm - N/A   Clear
9:35 AM 23.2 °F - 7.9 °F 52% 30.60 in 10.0 mi Calm Calm - N/A   Clear
9:55 AM 24.6 °F - 8.8 °F 51% 30.60 in 10.0 mi Calm Calm - N/A   Clear
10:15 AM 26.1 °F - 7.5 °F 46% 30.60 in 10.0 mi Calm Calm - N/A   Clear
10:35 AM 27.5 °F - 6.6 °F 41% 30.60 in 10.0 mi Calm Calm - N/A   Clear
10:55 AM 29.1 °F - 5.7 °F 37% 30.60 in 10.0 mi Calm Calm - N/A   Clear
11:15 AM 30.7 °F - 6.4 °F 36% 30.59 in 10.0 mi Calm Calm - N/A   Clear
11:35 AM 31.8 °F - 6.4 °F 34% 30.58 in 10.0 mi Calm Calm - N/A   Clear
11:55 AM 32.2 °F - 7.9 °F 36% 30.56 in 10.0 mi Calm Calm - N/A   Clear
12:15 PM 34.2 °F - 5.9 °F 31% 30.54 in 10.0 mi Calm Calm - N/A   Clear
12:35 PM 35.1 °F 31.0 °F 4.8 °F 28% 30.53 in 10.0 mi South 4.6 mph - N/A   Clear
12:55 PM 36.5 °F 33.9 °F 6.4 °F 29% 30.52 in 10.0 mi South 3.5 mph - N/A   Clear
1:15 PM 37.0 °F 34.5 °F 6.3 °F 28% 30.52 in 10.0 mi SW 3.5 mph - N/A   Clear
1:35 PM 38.1 °F 33.7 °F 7.2 °F 28% 30.51 in 10.0 mi South 5.8 mph - N/A   Clear
1:55 PM 39.6 °F 36.3 °F 5.2 °F 24% 30.50 in 10.0 mi South 4.6 mph - N/A   Clear
2:15 PM 41.0 °F 39.0 °F 2.8 °F 20% 30.50 in 10.0 mi South 3.5 mph - N/A   Clear
2:35 PM 42.3 °F 40.5 °F 4.6 °F 21% 30.49 in 10.0 mi SE 3.5 mph - N/A   Clear
2:55 PM 42.6 °F 38.4 °F 1.8 °F 18% 30.50 in 10.0 mi SSE 6.9 mph - N/A   Clear
3:15 PM 42.8 °F 39.3 °F 0.9 °F 17% 30.50 in 10.0 mi SSE 5.8 mph - N/A   Clear
3:35 PM 43.2 °F 40.5 °F 0.5 °F 17% 30.50 in 10.0 mi South 4.6 mph - N/A   Clear
3:55 PM 43.2 °F 39.7 °F 3.7 °F 20% 30.50 in 10.0 mi SSE 5.8 mph - N/A   Clear
4:15 PM 42.8 °F 38.6 °F 4.1 °F 20% 30.50 in 10.0 mi SSE 6.9 mph - N/A   Clear
4:35 PM 42.3 °F 37.9 °F 3.6 °F 20% 30.51 in 10.0 mi South 6.9 mph - N/A   Clear
4:55 PM 41.5 °F 37.8 °F 3.0 °F 20% 30.52 in 10.0 mi SSE 5.8 mph - N/A   Clear
5:15 PM 39.9 °F 37.8 °F 5.0 °F 23% 30.52 in 10.0 mi SSE 3.5 mph - N/A   Clear
5:35 PM 37.2 °F - 6.8 °F 28% 30.52 in 10.0 mi Calm Calm - N/A   Clear
5:55 PM 34.7 °F - 5.7 °F 30% 30.52 in 10.0 mi Calm Calm - N/A   Clear
6:15 PM 32.5 °F - 9.7 °F 39% 30.52 in 10.0 mi Calm Calm - N/A   Clear
6:35 PM 32.0 °F - 10.9 °F 42% 30.53 in 10.0 mi Calm Calm - N/A   Clear
6:55 PM 32.0 °F - 12.6 °F 45% 30.53 in 10.0 mi Calm Calm - N/A   Clear
7:15 PM 30.7 °F - 14.7 °F 52% 30.52 in 10.0 mi Calm Calm - N/A   Clear
7:35 PM 31.5 °F - 11.1 °F 43% 30.53 in 10.0 mi Calm Calm - N/A   Clear
7:55 PM 31.8 °F 26.2 °F 9.5 °F 39% 30.53 in 10.0 mi SSE 5.8 mph - N/A   Clear
8:15 PM 32.4 °F 26.9 °F 8.2 °F 36% 30.53 in 10.0 mi SSE 5.8 mph - N/A   Clear
8:35 PM 33.1 °F 30.0 °F 8.2 °F 35% 30.54 in 10.0 mi South 3.5 mph - N/A   Clear
8:55 PM 33.8 °F 30.8 °F 7.2 °F 33% 30.54 in 10.0 mi South 3.5 mph - N/A   Clear
9:15 PM 32.9 °F - 7.7 °F 35% 30.54 in 10.0 mi Calm Calm - N/A   Clear
9:35 PM 32.2 °F - 7.5 °F 36% 30.54 in 10.0 mi Calm Calm - N/A   Clear
9:55 PM 30.2 °F - 10.6 °F 44% 30.54 in 10.0 mi Calm Calm - N/A   Clear
10:15 PM 31.1 °F 27.7 °F 9.0 °F 40% 30.55 in 10.0 mi South 3.5 mph - N/A   Clear
10:35 PM 30.4 °F - 11.3 °F 45% 30.55 in 10.0 mi Calm Calm - N/A   Clear
10:55 PM 27.5 °F - 13.8 °F 56% 30.54 in 10.0 mi Calm Calm - N/A   Clear
11:15 PM 27.9 °F - 13.8 °F 56% 30.54 in 10.0 mi Calm Calm - N/A   Clear
11:35 PM 27.3 °F - 14.7 °F 59% 30.54 in 10.0 mi Calm Calm - N/A   Clear
11:55 PM 27.0 °F - 18.3 °F 70% 30.54 in 10.0 mi Calm Calm - N/A   Clear